Погода в Кукуях

Россия / Удмуртская Республика     57°00′02″N   53°48′22″E
темп.,
°C
ветер,
м/с
пор.,
м/с
влажн.,
%
обл.,
%
осадки,
мм/ч
давл.,
гПа
погр.,
м
15 апреля, чт
чт1501:00+10ю34875 0.0 102545
04:00+8ююз338666 0.0 102441
07:00+9ююз368654 0.0 1023153
10:00+14ююз47681 0.0 1022531
13:00+17юз57530 0.0 10211224
16:00+18юз57455 0.0 10191910
19:00+15зюз22589 0.0 101917
22:00+11ссз337073 0.0 102042
16 апреля, пт
пт1601:00+8св7128374 0.0 1022517
04:00+5св71383100 0.0 1023484
07:00+5св6128194 0.4 1025551
10:00+5св51070100 0.4 1026577
13:00+10всв676032 0.0 10251104
16:00+12всв56492 0.0 10251364
19:00+9ссв47595 0.0 1025165
22:00+5св511620 0.0 1027271
17 апреля, сб
сб1701:00+3ссв310640 0.0 1027204
04:00+1ссв39690 0.0 1027169
07:00+2ссв48655 0.0 1028254
10:00+7св56455 0.0 1028944
13:00+10ссв55392 0.0 10261454
16:00+11ссв454023 0.0 10251762
19:00+8ссз35555 0.0 102491
22:00+5ссз35665 0.0 102484
18 апреля, вс
вс1801:00+3ссз34725 0.0 102455
04:00+2сз38785 0.0 1023158
07:00+3ссз411750 0.0 1023408
10:00+5ссв9972100 0.0 10241225
13:00+5ссв8103757 0.0 10261952
16:00+5ссв81032100 0.0 10272399
19:00+3св610405 0.0 1029933
22:000св511500 0.0 1032521
19 апреля, пн
пн1901:00−1ссв48595 0.0 1034316
04:00−2св48625 0.0 1036372
07:00−1св45570 0.0 1038450
10:00+2ссв45343 0.0 10381570
13:00+4ссв45280 0.0 10381801
16:00+5с34282 0.0 10371944
19:00+3с22410 0.0 103717
22:000ссз22480 0.0 103812